Flag for Germany Weather past 2 weeks in Zittau, Saxony, Germany

Now
71 °F

Overcast.


Feels Like: 73 °F
Forecast: 62 / 83 °F
Wind: 2 mph from Northwest

Location: Liberec

Current Time: Jul 28, 2014 at 10:37:38 AM

Latest Report: Jul 28, 2014 at 10:00 AM


Visibility: 8 mi

Pressure: 29.90 "Hg

Humidity: 75%

Dew point: 63 °F

Location of ZittauLocation

Historic Weather in Zittau — Graph

°F

Zittau temperature yesterday

Maximum temperature yesterday: 81 °F (at 1:00 PM)
Minimum temperature yesterday: 60 °F (at 5:00 AM)
Average temperature yesterday: 71 °F

Past Weeks' High & Low Weather Summary

 TemperatureHumidityPressure
High89 °F (Jul 20, 5:00 PM)100% (Jul 18, 5:00 AM)30.19 "Hg (Jul 18, 5:00 AM)
Low53 °F (Jul 23, 5:00 AM)29% (Jul 23, 6:00 PM)29.72 "Hg (Jul 21, 10:00 AM)
Average69 °F71%29.96 "Hg
* Reported Jul 13 10:00 AM — Jul 28 9:00 AM, Zittau, Weather by CustomWeather, © 2014

Note: Actual official high and low records may vary slightly from our data, if they occured in-between our weather recording intervals... More about our weather records

Advertising

Zittau weather history for previous 24 hours

 ConditionsComfort  
Time TempWeatherWind HumidityBarometerVisibility
9:00 AM
Jul 28
69 °FOvercast.2 mph82%29.90 "Hg7 mi
8:00 AM67 °FPartly sunny.1 mph93%29.92 "Hg6 mi
7:00 AM63 °FMild.1 mph100%29.93 "Hg1 mi
6:00 AM61 °FDuststorm.1 mph99%29.92 "Hg0 mi
5:00 AM59 °FDuststorm.1 mph99%29.92 "Hg0 mi
4:00 AM62 °FDuststorm.1 mph97%29.92 "Hg0 mi
3:00 AM63 °FMild.2 mph98%29.93 "Hg10 mi
2:00 AM62 °FFog.1 mph98%29.95 "Hg1 mi
1:00 AM64 °FRain showers. Overcast.1 mph98%29.96 "Hg3 mi
12:00 AM64 °FLots of rain. Overcast.1 mph95%29.98 "Hg2 mi
11:00 PM
Jul 27
70 °FMild.2 mph83%29.95 "Hg12 mi
10:00 PM67 °FPassing clouds.1 mph83%29.92 "Hg12 mi
9:00 PM68 °FPassing clouds.1 mph81%29.91 "Hg11 mi
8:00 PM74 °FPartly sunny.1 mph71%29.88 "Hg16 mi
7:00 PM79 °FPartly sunny.1 mph62%29.85 "Hg17 mi
6:00 PM78 °FWarm.1 mph62%29.86 "Hg12 mi
5:00 PM76 °FPartly sunny.1 mph66%29.87 "Hg19 mi
4:00 PM73 °FPartly sunny.1 mph70%29.89 "Hg17 mi
3:00 PM71 °FSprinkles. Partly sunny.1 mph72%29.92 "Hg12 mi
2:00 PM72 °FSprinkles. Partly sunny.3 mph64%29.93 "Hg9 mi
1:00 PM81 °FThunderstorms. Partly sunny.2 mph46%29.90 "Hg17 mi
12:00 PM80 °FPartly sunny.2 mph47%29.90 "Hg19 mi
11:00 AM81 °FPartly sunny.2 mph45%29.90 "Hg19 mi
10:00 AM80 °FPartly sunny.1 mph51%29.91 "Hg19 mi
Weather by CustomWeather, © 2014

See weather overviewHow to use our weather pages